Starlink 30564

operational
NORAD ID: 58043 Int'l Des: 2023-156 Owner: SPXS Country: US Constellation: starlink
LEOCIRCULAR

关于 Starlink 30564

正在加载描述...

实时位置

正在加载3D地球...

即将过境

高度历史

Altitude vs Time

uPlot chart will show altitude changes over time

两行轨道根数

1 58043U 23156R 26034.21463035 -.00059168 00000-0 -20047-2 0 9992
2 58043 53.1570 238.6229 0001383 74.7778 285.3376 15.30147165131035
Epoch: Feb 3, 2026 • Age: 28 hours

当前状态

高度 477.0 km
速度 7.63 km/s
星下点 -3.22°S, 44.07°W
发射日期 Oct 9, 2023
运行时间 2.3 years
类型 internet

技术详情

分类 Payload
质量 730.00 kg
干质量 700.00 kg
总质量 730.00 kg
长度 0.30 m
直径 4.10 m
跨度 29.00 m
形状 Box + pan
制造商 SPXS
平台类型 Starlink V2M
阶段状态 In Orbit
所有者/国家 SPXS/US

大型星座

Loading constellations...